Home > Weather > Rosenheim > Past weeks

Flag for Germany Weather for the Past 2 Weeks in Rosenheim, Bavaria, Germany

Now
33 °F

Chilly.


Feels Like: 33 °F
Forecast: 30 / 46 °F
Wind: No wind

Location: Kufstein

Current Time: Feb 13, 2016 at 6:04:17 AM

Latest Report: Feb 13, 2016 at 5:00 AM


Visibility: N/A

Pressure: 29.41 "Hg

Humidity: 81%

Dew point: 28 °F

Location of RosenheimLocation

Historic Weather in Rosenheim — Graph

°F

Rosenheim Temperature Yesterday

Maximum temperature yesterday: 42 °F (at 3:00 PM)
Minimum temperature yesterday: 24 °F (at 8:00 AM)
Average temperature yesterday: 33 °F

High & Low Weather Summary for the Past Weeks

 TemperatureHumidityPressure
High58 °F (Feb 9, 5:00 PM)100% (Jan 30, 2:00 AM)30.53 "Hg (Jan 30, 2:00 AM)
Low24 °F (Feb 12, 8:00 AM)31% (Feb 9, 5:00 PM)29.23 "Hg (Feb 9, 9:00 PM)
Average38 °F85%30.01 "Hg
* Reported Jan 29 6:00 AM — Feb 13 5:00 AM, Rosenheim, Weather by CustomWeather, © 2016

Note: Actual official high and low records may vary slightly from our data, if they occured in-between our weather recording intervals... More about our weather records

Advertising

Rosenheim Weather History for the Previous 24 Hours

 ConditionsComfort  
Time TempWeatherWind HumidityBarometerVisibility
5:00 AM
Sat, Feb 13
33 °FChilly.No wind81%29.41 "HgN/A
4:00 AM33 °FChilly.1 mph81%29.41 "HgN/A
3:00 AM34 °FChilly.No wind80%29.41 "HgN/A
2:00 AM34 °FChilly.1 mph79%29.41 "HgN/A
1:00 AM34 °FChilly.1 mph80%29.44 "HgN/A
12:00 AM33 °FChilly.1 mph80%29.44 "HgN/A
10:00 PM
Fri, Feb 12
34 °FChilly.1 mph78%29.41 "HgN/A
9:00 PM35 °FChilly.1 mph77%29.41 "HgN/A
8:00 PM35 °FChilly.3 mph74%29.41 "HgN/A
7:00 PM35 °FChilly.1 mph76%29.41 "HgN/A
6:00 PM35 °FChilly.No wind76%29.44 "HgN/A
4:00 PM42 °FQuite cool.No wind53%29.47 "HgN/A
3:00 PM42 °FQuite cool.1 mph51%29.50 "HgN/A
2:00 PM40 °FQuite cool.1 mph52%29.56 "HgN/A
1:00 PM37 °FChilly.1 mph62%29.63 "HgN/A
12:00 PM35 °FChilly.1 mph68%29.68 "HgN/A
11:00 AM32 °FChilly.No wind75%29.73 "HgN/A
10:00 AM28 °FChilly.1 mph84%29.77 "HgN/A
9:00 AM25 °FChilly.1 mph89%29.81 "HgN/A
8:00 AM24 °FCold.1 mph89%29.83 "HgN/A
7:00 AM24 °FCold.No wind91%29.82 "HgN/A
Weather by CustomWeather, © 2016

See weather overviewHow to use our weather pages